Location: Eschentzwiller
(47.7125°N, 7.3981°E)
Time: 01:17:03
(UTC+00:00)

Cosmos 1726 Rocket - Pass Details

Date: 27 October 2020
Orbit: 603 x 629 km, 82.5° (Epoch: 26 November)

Event Time Altitude Azimuth Distance (km) Brightness Sun altitude
Rises 16:50:42 0° 169° (S) 2,856 7.0 -5.8°
Reaches altitude 10° 16:52:59 10° 162° (SSE) 1,960 6.1 -6.1°
Maximum altitude 16:57:04 41° 92° (E) 891 3.9 -6.8°
Drops below altitude 10° 17:01:12 10° 23° (NNE) 1,990 5.8 -7.5°
Sets 17:03:31 0° 16° (NNE) 2,906 6.7 -7.9°
